USP YPAD-YADG

Flight info

Callsign USP
Flight time 0h 10m
Altitude 2500
Route PNL
Aircraft B77L/H-SDE1E2E3FGHIJ2J3J4J5M1RWXY/LB1D1

Departure

Time 2026-04-23 11:17
Airport Adelaide International Airport (YPAD)

Arrival

Time 2026-04-23 11:28
Airport Aldinga Airport (YADG)
Time Latitude Longitude Altitude Speed Heading
2026-04-23 10:49 -34.94138 138.53526 31 ft 0 kts 320°
2026-04-23 11:03 -34.94139 138.53528 31 ft 2 kts 328°
2026-04-23 11:03 -34.94135 138.53528 31 ft 3 kts 325°
2026-04-23 11:04 -34.94144 138.53544 30 ft 3 kts 296°
2026-04-23 11:04 -34.94154 138.53565 29 ft 3 kts 308°
2026-04-23 11:04 -34.94167 138.53583 29 ft 3 kts 323°
2026-04-23 11:04 -34.94184 138.53595 29 ft 3 kts 344°
2026-04-23 11:05 -34.94203 138.53598 30 ft 3 kts 12°
2026-04-23 11:05 -34.94218 138.53591 30 ft 2 kts 46°
2026-04-23 11:05 -34.94221 138.53588 29 ft 0 kts 50°
2026-04-23 11:09 -34.94223 138.53633 29 ft 13 kts 119°
2026-04-23 11:09 -34.94302 138.53632 28 ft 14 kts 220°
2026-04-23 11:09 -34.94369 138.53542 27 ft 13 kts 230°
2026-04-23 11:10 -34.94399 138.53497 26 ft 0 kts 230°
2026-04-23 11:10 -34.94403 138.53492 27 ft 2 kts 230°
2026-04-23 11:10 -34.94416 138.53472 29 ft 5 kts 230°
2026-04-23 11:10 -34.94452 138.53421 27 ft 10 kts 230°
2026-04-23 11:11 -34.94495 138.53352 27 ft 11 kts 237°
2026-04-23 11:11 -34.94515 138.53252 27 ft 13 kts 277°
2026-04-23 11:11 -34.94475 138.53153 28 ft 13 kts 303°
2026-04-23 11:11 -34.94441 138.53047 27 ft 14 kts 265°
2026-04-23 11:12 -34.94502 138.52949 28 ft 15 kts 218°
2026-04-23 11:12 -34.94588 138.52867 26 ft 17 kts 218°
2026-04-23 11:12 -34.94690 138.52771 29 ft 20 kts 218°
2026-04-23 11:12 -34.94801 138.52667 27 ft 21 kts 218°
2026-04-23 11:13 -34.94917 138.52558 30 ft 21 kts 218°
2026-04-23 11:13 -34.95031 138.52450 29 ft 21 kts 217°
2026-04-23 11:13 -34.95147 138.52341 28 ft 21 kts 217°
2026-04-23 11:13 -34.95263 138.52231 29 ft 21 kts 220°
2026-04-23 11:14 -34.95361 138.52098 29 ft 21 kts 230°
2026-04-23 11:14 -34.95455 138.51961 30 ft 21 kts 230°
2026-04-23 11:14 -34.95549 138.51824 31 ft 21 kts 230°
2026-04-23 11:14 -34.95636 138.51697 30 ft 13 kts 230°
2026-04-23 11:15 -34.95710 138.51638 26 ft 12 kts 187°
2026-04-23 11:15 -34.95752 138.51646 28 ft 0 kts 155°
2026-04-23 11:15 -34.95752 138.51647 28 ft 0 kts 155°
2026-04-23 11:16 -34.95765 138.51654 28 ft 6 kts 152°
2026-04-23 11:16 -34.95825 138.51734 27 ft 12 kts 89°
2026-04-23 11:16 -34.95733 138.51897 28 ft 49 kts 50°
2026-04-23 11:17 -34.95315 138.52504 29 ft 135 kts 50°
2026-04-23 11:17 -34.94594 138.53563 290 ft 174 kts 51°
2026-04-23 11:17 -34.93834 138.54725 1178 ft 180 kts 50°
2026-04-23 11:17 -34.93092 138.55926 2199 ft 174 kts 59°
2026-04-23 11:18 -34.92803 138.57485 2714 ft 210 kts 91°
2026-04-23 11:18 -34.93329 138.59322 2793 ft 245 kts 119°
2026-04-23 11:18 -34.94403 138.60988 2782 ft 255 kts 128°
2026-04-23 11:18 -34.95939 138.62109 2919 ft 271 kts 165°
2026-04-23 11:19 -34.97818 138.61978 2866 ft 276 kts 200°
2026-04-23 11:19 -34.99360 138.60630 2821 ft 274 kts 227°
2026-04-23 11:19 -35.00684 138.58928 2808 ft 280 kts 224°
2026-04-23 11:19 -35.02148 138.57332 2813 ft 285 kts 220°
2026-04-23 11:20 -35.03712 138.55836 2813 ft 284 kts 217°
2026-04-23 11:20 -35.05293 138.54447 2791 ft 274 kts 215°
2026-04-23 11:20 -35.06795 138.53150 2780 ft 262 kts 219°
2026-04-23 11:20 -35.08215 138.51715 2799 ft 264 kts 218°
2026-04-23 11:21 -35.09691 138.50427 2799 ft 257 kts 213°
2026-04-23 11:21 -35.11187 138.49307 2804 ft 254 kts 210°
2026-04-23 11:21 -35.12727 138.48230 2838 ft 254 kts 209°
2026-04-23 11:21 -35.14275 138.47232 2625 ft 251 kts 200°
2026-04-23 11:22 -35.15951 138.46868 2378 ft 240 kts 174°
2026-04-23 11:22 -35.17551 138.47134 2239 ft 226 kts 167°
2026-04-23 11:22 -35.18566 138.47333 2126 ft 220 kts 168°
2026-04-23 11:22 -35.20538 138.47717 1703 ft 212 kts 168°
2026-04-23 11:23 -35.21923 138.47984 1608 ft 189 kts 168°
2026-04-23 11:23 -35.23178 138.48229 1536 ft 178 kts 167°
2026-04-23 11:23 -35.24384 138.48467 1535 ft 171 kts 168°
2026-04-23 11:23 -35.25542 138.48685 1521 ft 164 kts 168°
2026-04-23 11:24 -35.26654 138.48867 1555 ft 163 kts 173°
2026-04-23 11:24 -35.27828 138.48842 1431 ft 172 kts 184°
2026-04-23 11:24 -35.28606 138.48755 1336 ft 168 kts 181°
2026-04-23 11:24 -35.29929 138.49242 1512 ft 152 kts 115°
2026-04-23 11:25 -35.30081 138.50077 1618 ft 156 kts 81°
2026-04-23 11:25 -35.29206 138.51303 1136 ft 155 kts 15°
2026-04-23 11:25 -35.28190 138.51057 923 ft 152 kts 324°
2026-04-23 11:25 -35.27582 138.49976 948 ft 159 kts 295°
2026-04-23 11:26 -35.27446 138.49105 899 ft 163 kts 258°
2026-04-23 11:26 -35.28072 138.47997 807 ft 159 kts 220°
2026-04-23 11:26 -35.28962 138.47208 975 ft 161 kts 211°
2026-04-23 11:26 -35.29909 138.46413 938 ft 168 kts 213°
2026-04-23 11:27 -35.30947 138.46137 729 ft 151 kts 151°
2026-04-23 11:27 -35.31048 138.47517 801 ft 158 kts 48°
2026-04-23 11:27 -35.30148 138.48365 477 ft 163 kts 34°
2026-04-23 11:27 -35.29251 138.49100 123 ft 148 kts 37°
2026-04-23 11:28 -35.28599 138.49657 112 ft 49 kts 35°
2026-04-23 11:28 -35.28548 138.49688 114 ft 2 kts 322°
2026-04-23 11:28 -35.28548 138.49675 114 ft 2 kts 266°
2026-04-23 11:28 -35.28561 138.49664 114 ft 2 kts 204°
2026-04-23 11:29 -35.28579 138.49656 114 ft 3 kts 201°
2026-04-23 11:29 -35.28600 138.49645 111 ft 5 kts 202°
2026-04-23 11:29 -35.28701 138.49574 111 ft 16 kts 218°
2026-04-23 11:29 -35.28764 138.49515 109 ft 18 kts 217°
2026-04-23 11:30 -35.28854 138.49423 103 ft 13 kts 257°
2026-04-23 11:30 -35.28806 138.49287 102 ft 14 kts 313°
2026-04-23 11:30 -35.28754 138.49240 100 ft 14 kts 332°
2026-04-23 11:30 -35.28739 138.49235 101 ft 0 kts